Location: Newark
(48.2308°N, 120.8549°W)
Time: 17:41:26
(UTC+00:00)

Vanguard 2 - All Passes

Search period start: 06 June 2020 00:00
Search period end: 16 June 2020 00:00
Orbit: 552 x 2938 km, 32.9° (Epoch: 05 June)

Date Brightness Start Highest point End Pass type
(mag) Time Alt. Az. Time Alt. Az. Time Alt. Az.
06 Jun - 01:20:18 10° SW 01:33:26 33° S 01:42:44 10° ESE daylight
06 Jun - 03:31:18 10° WSW 03:42:41 34° S 03:50:11 10° SE daylight
06 Jun - 05:43:56 10° WSW 05:50:31 19° SSW 05:55:25 10° SSE visible
06 Jun - 23:28:44 10° SSW 23:41:13 26° SSE 23:51:18 10° ESE daylight
07 Jun - 01:37:27 10° SW 01:51:04 36° S 02:00:32 10° ESE daylight
07 Jun - 03:49:02 10° WSW 04:00:12 33° SSW 04:07:36 10° SE daylight
07 Jun - 06:02:27 10° WSW 06:07:43 16° SW 06:11:53 10° S visible
07 Jun - 21:41:18 10° SSE 21:49:06 15° SE 21:56:20 10° ESE daylight
07 Jun - 23:45:04 10° SSW 23:58:46 30° SSE 00:09:32 10° ESE daylight
08 Jun - 01:54:49 10° WSW 02:08:42 39° S 02:18:13 10° ESE daylight
08 Jun - 04:06:53 10° WSW 04:17:39 31° SSW 04:24:54 10° SE daylight
08 Jun - 06:21:48 10° WSW 06:24:50 12° SW 06:27:29 10° SSW visible
08 Jun - 21:55:40 10° S 22:06:27 20° SE 22:16:11 10° ESE daylight
09 Jun - 00:01:48 10° SW 00:16:21 35° SSE 00:27:34 10° ESE daylight
09 Jun - 02:12:20 10° WSW 02:26:18 39° S 02:35:49 10° ESE daylight
09 Jun - 04:24:52 10° WSW 04:35:00 27° SSW 04:42:01 10° SSE visible
09 Jun - 22:11:10 10° SSW 22:23:50 25° SSE 22:35:04 10° ESE daylight
10 Jun - 00:18:49 10° SW 00:33:57 38° SSE 00:45:26 10° ESE daylight
10 Jun - 02:29:59 10° WSW 02:43:52 39° S 02:53:19 10° SE daylight
10 Jun - 04:43:02 10° WSW 04:52:16 24° SSW 04:58:53 10° SSE visible
10 Jun - 20:26:12 10° SSE 20:31:52 12° SE 20:37:28 10° ESE daylight
10 Jun - 22:27:18 10° SSW 22:41:15 30° SSE 22:53:28 10° ESE daylight
11 Jun - 00:36:04 10° SW 00:51:34 41° S 01:03:11 10° ESE daylight
11 Jun - 02:47:45 10° WSW 03:01:22 37° SSW 03:10:43 10° SE daylight
11 Jun - 05:01:29 10° WSW 05:09:25 19° SW 05:15:25 10° S visible
11 Jun - 20:39:28 10° S 20:49:02 17° SE 20:58:26 10° ESE daylight
11 Jun - 22:43:52 10° SW 22:58:44 35° SSE 23:11:36 10° ESE daylight
12 Jun - 00:53:30 10° WSW 01:09:11 43° S 01:20:51 10° ESE daylight
12 Jun - 03:05:38 10° WSW 03:18:48 35° SSW 03:27:57 10° SE daylight
12 Jun - 05:20:28 10° WSW 05:26:29 15° SW 05:31:22 10° SSW visible
12 Jun - 20:54:33 10° S 21:06:15 23° SE 21:17:45 10° E daylight
12 Jun - 23:00:46 10° SW 23:16:16 39° SSE 23:29:34 10° ESE daylight
13 Jun - 01:11:04 10° WSW 01:26:47 43° S 01:38:25 10° ESE daylight
13 Jun - 03:23:38 10° W 03:36:09 31° SSW 03:45:02 10° SSE daylight
13 Jun - 05:41:07 10° WSW 05:43:26 11° SW 05:45:34 10° SW visible
13 Jun - 21:10:26 10° SSW 21:23:31 28° SSE 21:36:25 10° E daylight
13 Jun - 23:17:53 10° SW 23:33:50 42° SSE 23:47:23 10° ESE daylight
14 Jun - 01:28:45 10° WSW 01:44:20 43° S 01:55:53 10° SE daylight
14 Jun - 03:41:49 10° W 03:53:23 27° SSW 04:01:52 10° SSE daylight
14 Jun - 19:24:53 10° SSE 19:31:45 14° SE 19:38:56 10° ESE daylight
14 Jun - 21:26:48 10° SSW 21:40:52 33° SSE 21:54:43 10° E daylight
14 Jun - 23:35:13 10° WSW 23:51:26 45° S 00:05:07 10° ESE daylight
15 Jun - 01:46:33 10° WSW 02:01:51 40° SSW 02:13:15 10° SE daylight
15 Jun - 04:00:15 10° W 04:10:32 22° SW 04:18:21 10° S daylight
15 Jun - 19:39:06 10° S 19:48:48 19° SE 19:59:10 10° ESE daylight
15 Jun - 21:43:32 10° SW 21:58:17 37° SSE 22:12:47 10° E daylight
